CONSULTA PERSONALIZADA Alfaro
      Predicción AEMET      
Valores extremos - medios de hoy
Fecha T (C) P (l/m2) Hr (%) Rs (W/m2) VV (km/h) DV Tint.(C)
Max Med Min Acu Med Med Max Med Max Med Min
 22-06-2017   32,9   26,6   22,9   0,0   46   245   20,2   139   38,3   34,8   32,5 
Datos de hoy
Fecha T (C) P (l/m2) Hr (%) Rs (W/m2) VV (km/h) DV Tint.(C)
Max Med Min Acu Med Med Max Med Max Med Min
 22-06-2017 13:15:00   32,9   32,3   31,9   0,0   33   962   14,8   140   33,8   33,7   33,6 
 22-06-2017 13:00:00   32,6   32,0   31,5   0,0   34   907   18,4   119   33,6   33,6   33,5 
 22-06-2017 12:45:00   32,0   31,5   31,0   0,0   37   907   15,1   125   33,5   33,4   33,3 
 22-06-2017 12:30:00   31,7   31,1   30,6   0,0   38   880   16,9   127   33,4   33,3   33,3 
 22-06-2017 12:15:00   31,7   31,0   30,5   0,0   38   861   18,4   123   33,3   33,2   33,1 
 22-06-2017 12:00:00   30,8   30,1   29,5   0,0   39   834   16,2   130   33,1   33,1   33,0 
 22-06-2017 11:45:00   30,7   30,2   29,9   0,0   39   796   16,2   131   33,0   33,0   32,9 
 22-06-2017 11:30:00   30,2   29,5   28,6   0,0   40   768   19,4   134   32,9   32,9   32,9 
 22-06-2017 11:15:00   29,2   28,8   28,5   0,0   42   724   20,2   132   32,9   32,9   32,8 
 22-06-2017 11:00:00   29,0   28,4   28,1   0,0   43   671   17,6   138   32,8   32,8   32,8 
 22-06-2017 10:45:00   29,2   28,5   28,0   0,0   43   672   19,8   135   32,8   32,8   32,8 
 22-06-2017 10:30:00   28,5   28,1   27,7   0,0   46   618   17,6   129   32,8   32,8   32,7 
 22-06-2017 10:15:00   27,7   27,4   26,9   0,0   49   558   11,9   122   32,8   32,7   32,7 
 22-06-2017 10:00:00   27,6   26,8   26,2   0,0   51   497   13,7   127   32,7   32,7   32,7 
 22-06-2017 09:45:00   26,5   26,0   25,7   0,0   53   444   11,9   118   32,7   32,6   32,6 
 22-06-2017 09:30:00   26,1   25,4   24,9   0,0   55   405   13,7   93   32,6   32,6   32,5 
 22-06-2017 09:15:00   25,4   25,0   24,6   0,0   57   378   13,3   86   32,7   32,6   32,6 
 22-06-2017 09:00:00   24,7   24,2   23,6   0,0   60   334   10,8   87   32,7   32,6   32,6 
 22-06-2017 08:45:00   23,6   23,4   23,2   0,0   63   284   11,5   83   33,0   32,7   32,5 
 22-06-2017 08:30:00   25,2   24,3   23,5   0,0   58   230   9,0   73   33,3   33,2   33,0 
 22-06-2017 08:15:00   24,8   24,0   23,5   0,0   50   183   6,8   149   33,4   33,3   33,3 
 22-06-2017 08:00:00   23,6   23,2   23,0   0,0   52   140   6,8   176   33,5   33,5   33,4 
 22-06-2017 07:45:00   23,4   23,2   23,0   0,0   51   101   6,5   202   33,8   33,6   33,5 
 22-06-2017 07:30:00   24,0   23,5   23,2   0,0   49   57   6,5   193   33,9   33,8   33,8 
 22-06-2017 07:15:00   24,6   24,3   24,0   0,0   47   26   8,3   165   34,0   33,9   33,9 
 22-06-2017 07:00:00   24,4   24,1   23,8   0,0   47   12   8,3   179   34,2   34,1   34,0 
 22-06-2017 06:45:00   24,5   24,0   23,3   0,0   49   5   9,0   196   34,4   34,3   34,2 
 22-06-2017 06:30:00   23,5   23,1   22,9   0,0   52   0   9,0   211   34,5   34,4   34,4 
 22-06-2017 06:15:00   23,7   23,3   23,0   0,0   51   0   8,6   197   34,7   34,6   34,5 
 22-06-2017 06:00:00   24,9   24,1   23,7   0,0   48   0   6,1   225   34,9   34,8   34,7 
 22-06-2017 05:45:00   25,1   24,3   23,7   0,0   48   0   10,1   168   35,0   34,9   34,9 
 22-06-2017 05:30:00   24,2   23,9   23,6   0,0   48   0   9,4   182   35,2   35,1   35,0 
 22-06-2017 05:15:00   25,3   24,9   24,2   0,0   45   0   8,6   177   35,4   35,3   35,2 
 22-06-2017 05:00:00   24,6   24,5   24,2   0,0   47   0   10,4   177   35,5   35,5   35,4 
 22-06-2017 04:45:00   25,4   24,6   24,2   0,0   48   0   11,2   189   35,7   35,7   35,5 
 22-06-2017 04:30:00   25,8   25,6   25,4   0,0   47   0   10,4   152   35,9   35,8   35,7 
 22-06-2017 04:15:00   25,7   25,5   25,4   0,0   48   0   9,4   149   36,1   36,0   35,9 
 22-06-2017 04:00:00   25,4   25,0   24,6   0,0   50   0   8,6   168   36,2   36,1   36,1 
 22-06-2017 03:45:00   25,7   25,5   25,2   0,0   50   0   7,6   158   36,3   36,3   36,2 
 22-06-2017 03:30:00   25,8   25,6   25,4   0,0   50   0   9,0   129   36,4   36,4   36,3 
 22-06-2017 03:15:00   25,5   25,5   25,4   0,0   51   0   12,6   117   36,6   36,5   36,4 
 22-06-2017 03:00:00   25,9   25,7   25,5   0,0   50   0   13,3   108   36,7   36,6   36,6 
 22-06-2017 02:45:00   26,4   26,2   25,9   0,0   48   0   13,7   105   36,9   36,8   36,7 
 22-06-2017 02:30:00   26,7   26,5   26,3   0,0   47   0   12,6   104   37,1   37,0   36,9 
 22-06-2017 02:15:00   27,2   26,9   26,7   0,0   45   0   12,2   111   37,3   37,2   37,1 
 22-06-2017 02:00:00   27,6   27,4   27,2   0,0   43   0   9,7   115   37,5   37,4   37,3 
 22-06-2017 01:45:00   27,9   27,7   27,5   0,0   42   0   7,6   118   37,6   37,5   37,5 
 22-06-2017 01:30:00   28,1   27,9   27,7   0,0   41   0   6,5   111   37,7   37,7   37,6 
 22-06-2017 01:15:00   28,3   28,1   27,9   0,0   41   0   8,6   129   37,9   37,8   37,7 
 22-06-2017 01:00:00   28,0   27,9   27,9   0,0   43   0   6,8   114   38,0   37,9   37,9 
 22-06-2017 00:45:00   28,3   28,1   27,9   0,0   42   0   9,0   112   38,1   38,0   38,0 
 22-06-2017 00:30:00   28,7   28,5   28,3   0,0   41   0   12,6   118   38,2   38,1   38,1 
 22-06-2017 00:15:00   29,0   28,9   28,7   0,0   40   0   13,3   117   38,3   38,2   38,1 
 22-06-2017 00:00:00   29,5   29,2   29,0   0,0   38   0   12,2   117   38,3   38,3   38,2 
Datos diarios
Fecha desde Fecha hasta       Visualizar         Exportar Excel  
     
Alfaro - Fecha desde: 15-06-2017 - Fecha hasta: 21-06-2017
Fecha T (C) P (l/m2) Hr (%) Rs (W/m2) VV (km/h) DV Tint.(C)
Max Med Min Acu Med Med Max Med Max Med Min
 21-06-2017   35,5   28,1   21,3   0,0   43   352   23,4   125   38,6   33,7   30,0 
 20-06-2017   32,5   25,7   19,8   0,0   54   267   34,9   135   35,4   32,7   29,3 
 19-06-2017   36,4   28,2   22,3   0,0   42   343   46,4   156   38,1   35,0   31,9 
 18-06-2017   37,5   27,4   18,7   0,0   41   383   26,3   210   38,4   32,3   -40,0 
 17-06-2017   34,8   25,4   17,5   0,0   48   387   34,2   307   34,7   29,8   25,7 
 16-06-2017   32,7   23,4   17,1   0,0   58   378   37,1   311   32,9   28,7   25,0 
 15-06-2017   30,8   24,2   19,9   0,0   66   315   42,5   305   38,5   32,7   30,1 
Datos mensuales
        Exportar      
   
Alfaro
Fecha T (C) P (l/m2) Hr (%) Rs (W/m2) VV (km/h) DV Tint.(C)
Max Med Min Acu Med Med Max Med Max Med Min
 Junio -2017   37,5   23,1   11,6   41,8   58   310   50,4   218   39,2   28,7   -40,0 
 Mayo -2017   34,2   18,6   4,0   31,6   56   286   61,2   184   36,8   24,4   14,6 
 Abril -2017   26,6   13,7   2,1   5,5   53   274   61,2   239   31,8   22,8   14,7 
 Marzo -2017   26,1   11,8   3,7   37,7   66   193   60,1   212   29,5   20,8   -40,0 
 Febrero -2017   19,9   9,4   1,8   36,8   74   112   87,5   209   24,9   19,1   13,1 
 Enero -2017   15,2   5,7   -4,3   10,0   72   86   61,2   267   25,6   18,5   10,2 
 Diciembre -2016   14,8   6,3   -0,9   6,6   92   52   47,2   211   20,5   10,3   5,1 
 Noviembre -2016   20,3   9,7   0,5   46,5   78   82   52,9   236   18,8   12,1   6,6 
 Octubre -2016   27,1   15,2   5,5   19,6   71   137   48,6   219   30,1   19,6   -40,0 
 Septiembre-2016   36,8   20,9   11,0   3,5   59   220   79,9   233   36,9   26,1   -40,0 
 Agosto -2016   35,1   23,2   12,7   2,4   51   303   56,2   225   37,1   28,8   19,4 
 Julio -2016   39,1   22,7   11,5   46,6   56   318   57,6   245   38,5   28,2   18,8 
PARÁMETROS
Desc. Abr. Descripción
T Temperatura del aire
P Precipitación acumulada
Hr Humedad relativa del aire
Rs Radiación solar
VV Velocidad del viento
DV Dirección del viento
Tint Temperatura interior
 
FUNCIONES
Desc. Abr. Descripción
Max Máxima
Med Media
Min Mínima
Acu Acumulado